Coatesville, PA

11:15 PM EST on November 13, 2019 (GMT -0500)
Chester County Carlson

Weather History for KMQS - September, 2019

Change the Weather History Date:

Tuesday, September 10, 2019

  Actual Average (KILG) Record (KILG)
Temperature  
Mean Temperature 71 °F -  
Max Temperature 80 °F 80 °F 98 °F (1983)
Min Temperature 62 °F 59 °F 42 °F (1938)
Cooling Degree Days 6    
Growing Degree Days 21 (Base 50)    
Moisture  
Dew Point 64 °F    
Average Humidity 81    
Maximum Humidity 100    
Minimum Humidity 51    
Precipitation  
Precipitation 0.00 in - - ()
Sea Level Pressure  
Sea Level Pressure 30.32 in    
Wind  
Wind Speed 2 mph ()    
Max Wind Speed 8 mph    
Max Gust Speed 15 mph    
Visibility 7.7 miles    
Events Fog    
Averages and records for this station are not official NWS values.
T = Trace of Precipitation, MM = Missing Value Source: Averaged Metar Reports

Daily Weather History Graph

Daily Weather History Graph

Search for Another Location

Airport or City:

Astronomy

Sep. 10, 2019 Rise Set
Actual Time 6:39 AM EDT 7:20 PM EDT
Civil Twilight 6:12 AM EDT 7:48 PM EDT
Nautical Twilight 5:39 AM EDT 8:20 PM EDT
Astronomical Twilight 5:06 AM EDT 8:53 PM EDT
Moon 5:55 PM EDT (9/10) 3:03 AM EDT (9/10)
Length of Visible Light 13h 35m
Length of Day
12h 41m
Waxing Gibbous, 89% of the Moon is Illuminated
Sep 10
Waxing Gibbous
Sep 14
Full
Sep 21
Last Quarter
Sep 28
New
Oct 5
First Quarter

Hourly Weather History & Observations

Time (EDT) Temp. Heat Index Dew Point Humidity Pressure Visibility Wind Dir Wind Speed Gust Speed Precip Events Conditions
12:15 AM 66.2 °F - 62.6 °F 88% 30.29 in 10.0 mi Calm Calm - N/A   Mostly Cloudy
12:35 AM 66.2 °F - 62.6 °F 88% 30.29 in 10.0 mi Calm Calm - N/A   Scattered Clouds
12:55 AM 64.4 °F - 62.6 °F 94% 30.30 in 10.0 mi Calm Calm - N/A   Clear
1:15 AM 64.4 °F - 62.6 °F 94% 30.30 in 10.0 mi Calm Calm - N/A   Partly Cloudy
1:35 AM 64.4 °F - 62.6 °F 94% 30.30 in 10.0 mi Calm Calm - N/A   Mostly Cloudy
1:55 AM 64.4 °F - 62.6 °F 94% 30.31 in 10.0 mi Calm Calm - N/A   Mostly Cloudy
2:15 AM 64.4 °F - 62.6 °F 94% 30.31 in 10.0 mi Calm Calm - N/A   Mostly Cloudy
2:35 AM 62.6 °F - 62.6 °F 100% 30.31 in 10.0 mi Calm Calm - N/A   Mostly Cloudy
2:55 AM 64.4 °F - 62.6 °F 94% 30.30 in 9.0 mi Calm Calm - N/A   Overcast
3:15 AM 64.4 °F - 62.6 °F 94% 30.30 in 5.0 mi Calm Calm - N/A   Mostly Cloudy
3:35 AM 64.4 °F - 64.4 °F 100% 30.31 in 0.8 mi Calm Calm - N/A   Overcast
3:55 AM 66.2 °F - 64.4 °F 94% 30.31 in 3.0 mi Calm Calm - N/A   Overcast
4:15 AM 66.2 °F - 66.2 °F 100% 30.32 in 0.5 mi Calm Calm - N/A   Overcast
4:35 AM 66.2 °F - 64.4 °F 94% 30.32 in 0.2 mi Calm Calm - N/A Fog Fog
4:55 AM 64.4 °F - 64.4 °F 100% 30.32 in 0.2 mi Calm Calm - N/A Fog Fog
5:15 AM 64.4 °F - 64.4 °F 100% 30.33 in 0.2 mi Calm Calm - N/A Fog Fog
5:35 AM 64.4 °F - 64.4 °F 100% 30.33 in 0.2 mi Calm Calm - N/A Fog Fog
5:55 AM 64.4 °F - 64.4 °F 100% 30.33 in 0.2 mi Calm Calm - N/A Fog Fog
6:15 AM 64.4 °F - 64.4 °F 100% 30.34 in 0.2 mi Calm Calm - N/A Fog Fog
6:35 AM 64.4 °F - 64.4 °F 100% 30.34 in 0.2 mi ESE 3.5 mph - N/A Fog Fog
7:15 AM 64.4 °F - 64.4 °F 100% 30.35 in 0.2 mi Calm Calm - N/A Fog Fog
7:35 AM 66.2 °F - 66.2 °F 100% 30.36 in - Calm Calm - N/A   Overcast
7:55 AM 66.2 °F - 66.2 °F 100% 30.36 in 0.2 mi Variable 3.5 mph - N/A Fog Fog
8:15 AM 66.2 °F - 66.2 °F 100% 30.37 in 0.2 mi Calm Calm - N/A Fog Fog
8:35 AM 66.2 °F - 66.2 °F 100% 30.37 in 1.0 mi Calm Calm - N/A   Overcast
8:55 AM 66.2 °F - 66.2 °F 100% 30.38 in 3.0 mi SSE 4.6 mph - N/A   Overcast
9:15 AM 66.2 °F - 66.2 °F 100% 30.37 in 4.0 mi Variable 4.6 mph - N/A   Overcast
9:35 AM 66.2 °F - 66.2 °F 100% 30.37 in 4.0 mi Variable 3.5 mph - N/A   Overcast
9:55 AM 69.8 °F - 68.0 °F 94% 30.37 in 7.0 mi SE 6.9 mph - N/A   Mostly Cloudy
10:15 AM 71.6 °F - 64.4 °F 78% 30.37 in 10.0 mi SSE 6.9 mph - N/A   Partly Cloudy
10:35 AM 73.4 °F - 64.4 °F 73% 30.37 in 10.0 mi Variable 4.6 mph - N/A   Partly Cloudy
10:55 AM 75.2 °F - 64.4 °F 69% 30.37 in 10.0 mi Variable 6.9 mph - N/A   Partly Cloudy
11:15 AM 75.2 °F - 64.4 °F 69% 30.36 in 10.0 mi ESE 6.9 mph - N/A   Partly Cloudy
11:35 AM 77.0 °F - 62.6 °F 61% 30.36 in 10.0 mi Calm Calm - N/A   Partly Cloudy
11:55 AM 77.0 °F - 62.6 °F 61% 30.36 in 10.0 mi Variable 5.8 mph - N/A   Partly Cloudy
12:15 PM 78.8 °F - 60.8 °F 54% 30.35 in 10.0 mi Variable 4.6 mph 11.5 mph N/A   Clear
12:35 PM 78.8 °F - 60.8 °F 54% 30.35 in 10.0 mi Variable 5.8 mph 15.0 mph N/A   Clear
12:55 PM 78.8 °F - 60.8 °F 54% 30.35 in 10.0 mi Variable 5.8 mph - N/A   Scattered Clouds
1:15 PM 80.6 °F 81.8 °F 62.6 °F 54% 30.35 in 10.0 mi Variable 5.8 mph - N/A   Mostly Cloudy
1:35 PM 80.6 °F 81.5 °F 60.8 °F 51% 30.34 in 10.0 mi Variable 4.6 mph 11.5 mph N/A   Scattered Clouds
1:55 PM 78.8 °F - 62.6 °F 57% 30.33 in 10.0 mi Variable 4.6 mph - N/A   Mostly Cloudy
2:15 PM 78.8 °F - 62.6 °F 57% 30.33 in 10.0 mi Variable 6.9 mph - N/A   Mostly Cloudy
2:35 PM 78.8 °F - 62.6 °F 57% 30.32 in 10.0 mi Variable 6.9 mph - N/A   Scattered Clouds
2:55 PM 80.6 °F 81.5 °F 60.8 °F 51% 30.31 in 10.0 mi South 5.8 mph 12.7 mph N/A   Scattered Clouds
3:15 PM 80.6 °F 81.8 °F 62.6 °F 54% 30.31 in 10.0 mi Variable 4.6 mph 11.5 mph N/A   Scattered Clouds
3:35 PM 80.6 °F 81.8 °F 62.6 °F 54% 30.31 in 10.0 mi Variable 6.9 mph - N/A   Scattered Clouds
3:55 PM 78.8 °F - 64.4 °F 61% 30.31 in 10.0 mi SE 6.9 mph 15.0 mph N/A   Mostly Cloudy
4:15 PM 78.8 °F - 64.4 °F 61% 30.30 in 10.0 mi SE 8.1 mph - N/A   Mostly Cloudy
4:35 PM 80.6 °F 82.3 °F 64.4 °F 58% 30.30 in 10.0 mi Variable 6.9 mph - N/A   Mostly Cloudy
4:55 PM 80.6 °F 82.3 °F 64.4 °F 58% 30.30 in 10.0 mi Variable 5.8 mph - N/A   Mostly Cloudy
5:15 PM 78.8 °F - 60.8 °F 54% 30.31 in 10.0 mi Variable 4.6 mph - N/A   Mostly Cloudy
5:35 PM 78.8 °F - 62.6 °F 57% 30.30 in 10.0 mi Variable 3.5 mph - N/A   Scattered Clouds
5:55 PM 78.8 °F - 62.6 °F 57% 30.30 in 10.0 mi Calm Calm - N/A   Clear
6:15 PM 78.8 °F - 62.6 °F 57% 30.30 in 10.0 mi Calm Calm - N/A   Clear
6:30 PM 77.0 °F - 66.2 °F 69% 30.30 in 10.0 mi SSE 4.6 mph - N/A   Clear
6:55 PM 75.2 °F - 66.2 °F 73% 30.30 in 10.0 mi SE 4.6 mph - N/A   Clear
7:15 PM 73.4 °F - 66.2 °F 78% 30.30 in 10.0 mi SE 4.6 mph - N/A   Clear
7:35 PM 73.4 °F - 66.2 °F 78% 30.30 in 10.0 mi Variable 4.6 mph - N/A   Clear
7:55 PM 71.6 °F - 64.4 °F 78% 30.29 in 10.0 mi Variable 4.6 mph - N/A   Clear
8:15 PM 71.6 °F - 64.4 °F 78% 30.29 in 10.0 mi Variable 4.6 mph - N/A   Clear
8:35 PM 69.8 °F - 64.4 °F 83% 30.29 in 10.0 mi Variable 5.8 mph - N/A   Clear
8:55 PM 69.8 °F - 64.4 °F 83% 30.30 in 10.0 mi Variable 4.6 mph - N/A   Clear
9:15 PM 69.8 °F - 64.4 °F 83% 30.30 in 10.0 mi Variable 4.6 mph - N/A   Clear
9:35 PM 68.0 °F - 66.2 °F 94% 30.29 in 10.0 mi Calm Calm - N/A   Clear
9:55 PM 68.0 °F - 66.2 °F 94% 30.29 in 10.0 mi SSE 5.8 mph - N/A   Clear
10:15 PM 68.0 °F - 66.2 °F 94% 30.29 in 10.0 mi Variable 3.5 mph - N/A   Clear
10:35 PM 68.0 °F - 66.2 °F 94% 30.29 in 10.0 mi Calm Calm - N/A   Clear
10:55 PM 68.0 °F - 66.2 °F 94% 30.29 in 10.0 mi Calm Calm - N/A   Clear
11:15 PM 68.0 °F - 66.2 °F 94% 30.29 in 10.0 mi Variable 3.5 mph - N/A   Clear
11:35 PM 68.0 °F - 66.2 °F 94% 30.29 in 10.0 mi Variable 3.5 mph - N/A   Clear
11:55 PM 68.0 °F - 66.2 °F 94% 30.29 in 10.0 mi Variable 4.6 mph - N/A   Clear